Regional Weather Roundup
Issued by NWS Charleston, SC

Current Version | Previous Version | Graphics & Text | Print | Product List | Glossary On
Versions: 1 2 3 4 5 6 7 8 9 10 11 12 13 14 15 16 17 18 19 20 21 22 23 24 25 26 27 28 29 30 31 32 33 34 35 36 37 38 39 40 41 42 43 44 45 46 47 48 49 50
218
ASUS42 KCHS 221912
RWRCHS

REGIONAL WEATHER ROUNDUP
NATIONAL WEATHER SERVICE CHARLESTON SC
300 PM EDT MON MAY 22 2017

NOTE: "FAIR" INDICATES FEW OR NO CLOUDS BELOW 12,000 FEET WITH NO
SIGNIFICANT WEATHER AND/OR OBSTRUCTIONS TO VISIBILITY.

NOT ALL STATIONS ARE QUALITY CONTROLLED. USE DATA WITH CAUTION...
ESPECIALLY DEWPOINT OBSERVATIONS.

SCZ027-030-031-034>040-042>050-222000-
...SOUTHEAST SOUTH CAROLINA...

CITY           SKY/WX    TMP DP  RH WIND       PRES   REMARKS
N CHARLESTON   PTSUNNY   85  71  63 S8        29.98F HX  90
WATERFRONT PRK   N/A     80  73  79 S8        29.97F
JOHNS ISLAND   FAIR      84  73  70 S10       29.99F HX  91
PINOPOLIS        N/A     84  73  70 VRB3      29.92F HX  91
MONCKS CORNER  NOT AVBL
SUMMERVILLE    MOCLDY    84  72  65 E5        29.98F
BEAUFORT MCAS  TSTM      77  76  96 SW6       29.99F FOG
BEAUFORT ARPT  TSTM      79  72  78 S7        29.99S
HILTON HEAD IS PTSUNNY   79  73  83 SE7G15    30.01F
WALTERBORO     CLOUDY    84  70  61 S12       29.98F
ALLENDALE      RAIN      82  72  69 W3        29.96F

...SOUTHERN MIDLANDS AND PEE DEE...

CITY           SKY/WX    TMP DP  RH WIND       PRES   REMARKS
GEORGETOWN     FAIR      82  72  69 SW12      29.99F
KINGSTREE      FAIR      86  68  54 S5        29.97F
ORANGEBURG     CLOUDY    84  69  60 S7        29.97F
BARNWELL       MOCLDY    79  73  83 CALM      29.98S THUNDER
AIKEN          FAIR      86  64  48 S12G21    30.00F
MANNING        FAIR      84  72  65 S7        29.97F
COLUMBIA       CLOUDY    75  68  78 N3        29.97F
SUMTER         CLOUDY    85  68  57 S7        29.94F
FLORENCE       CLOUDY    85  70  60 SW8       29.97F
MYRTLE BEACH   PTSUNNY   81  72  74 S14       30.00F
N MYRTLE BEACH CLOUDY    81  71  71 S17G26    29.98F

$$

GAZ063-065-086>088-099>101-113>116-118-119-134>141-150-222000-
...SOUTHEAST GEORGIA...

CITY           SKY/WX    TMP DP  RH WIND       PRES   REMARKS
SAVANNAH ARPT  CLOUDY    80  70  71 NE8       29.97F
HUNTER AAF     MOSUNNY   85  78  78 SE13G20   29.94F HX  96
FORT STEWART   PTSUNNY   88  67  49 S8        29.94F HX  91
STATESBORO     CLOUDY    81  77  88 CALM      29.97F
SYLVANIA       CLOUDY    73  69  89 CALM      29.99F
CLAXTON        FAIR      79  78  96 CALM      29.97F

...CSRA...CENTRAL AND FAR SOUTHEAST GEORGIA...

CITY           SKY/WX    TMP DP  RH WIND       PRES   REMARKS
THOMSON        CLOUDY    76  66  70 E9        30.05R THUNDER
AUGUSTA-BUSH   PTSUNNY   87  68  52 S15       29.94F HX  90
AUGUSTA-DANIEL PTSUNNY   89  63  41 SW13G21   29.97F HX  90
SWAINSBORO     FAIR      82  68  61 SW6       29.98F
VIDALIA        CLOUDY    86  70  58 SW5       29.97F HX  90
EASTMAN        FAIR      81  60  48 S6        30.00F
HAZLEHURST     MOCLDY    87  69  54 SW7       29.96F HX  91
ALMA           MOSUNNY   88  68  51 W7        29.97F HX  91
WAYCROSS       MOSUNNY   92  71  51 S5        29.97F HX  98
JESUP          FAIR      86  68  54 S3        29.97F
BAXLEY         PTSUNNY   86  72  62 SW8       29.97F HX  92
BRUNSWICK      MOSUNNY   86  73  66 SE13      29.96F HX  93
SAINT SIMONS   CLOUDY    82  72  71 SE13      29.97F

$$

SCZ027-028-034-036>038-045-046-048>050-GAZ119-141-222000-
...LAKE AND SUPPLEMENTAL COASTAL OBSERVATIONS...

STATION/POSITION TIME  TEMP    WIND        PRES    WAVE   SWELL
                       AIR SEA DIR/SP/G            HT/PER HT/PER/DIR
                 (UTC) (F)     (DEG/KT/KT) (MB)    (FT/S) (FT/S/D)
WINYAH BAY       1745   80     190/ 10     1017.0
LAKE MURRAY      1820   78     100/  7/  9 1014.6F
ACE BASIN NERRS  1745   82     140/  2     1017.0
FORT PULASKI     1848   83 80  170/  7/ 10 1015.6F
SAPELO ISLAND    1800   87     140/  7     1016.0

$$

ANZ835-935-AMZ111-154-330-350-352-354-370-450-454-472-222000-
...C-MAN AND BUOY OBSERVATIONS...

STATION/POSITION TIME  TEMP    WIND        PRES    WAVE   SWELL
                       AIR SEA DIR/SP/G            HT/PER HT/PER/DIR
                 (UTC) (F)     (DEG/KT/KT) (MB)    (FT/S) (FT/S/D)
BUOY 41004       1850   78 78  190/ 10/ 14 1016.1F   3/10   2/ 80/10
BUOY 41008       1750   78 79  180/ 10/ 12 1016.4    2/ 8   2/130/ 8
FOLLY BEACH CMAN 1800   79     180/  9/ 12 1017.2F
CAPERS NEARSHORE 1808   81 78  210/ 10/ 16 1016.4F
FRIPP NEARSHORE  1808   78 79  170/ 10/ 14 1015.9F


STATION/POSITION TIME  TEMP    WIND        PRES    WAVE   SWELL
                       AIR SEA DIR/SP/G            HT/PER HT/PER/DIR
                 (UTC) (F)     (DEG/KT/KT) (MB)    (FT/S) (FT/S/D)
5E ST. MARYS GA  1830      80                N/A     2/ 5
FRYING PAN BUOY  1850   78 78  200/ 14/ 16 1016.4F   3/ 9   2/ 70/ 9
BUOY 41025       1850   77 78  190/ 12/ 16 1016.3F   4/ 8   3/ 80/ 8
CAPE LOOKOUT NC  1800   79     210/ 12/ 18 1016.4F
BUOY 41002       1750   75 78  260/  4/  6 1019.6    4/ 8   3/ 30/ 8
BUOY 41010       1850   78 79  150/ 10/ 12 1017.9F   2/ 8   2/110/ 8
ST AUGUSTINE FL  1800   78 81  120/ 13/ 15 1017.0F


$$




USA.gov is the U.S. government's official web portal to all federal, state and local government web resources and services.